This is the latest recevied weather packets stored in our database for station/object N9XRG. If no packets are shown the sender has not sent any weather packets the latest 1 day(s).
| Time | Temp. | Humidity | Pressure | Rain* | Wind** | Luminosity | Snow |
|---|---|---|---|---|---|---|---|
| 1778023718 | 9.44° C | 93% | 1008.6 hPa | 1.27 mm | - | 21 W/m² | - |
| 1778023416 | 9.44° C | 93% | 1008.5 hPa | 0.51 mm | - | 24 W/m² | - |
| 1778022810 | 9.44° C | 93% | 1008.4 hPa | 0 mm | - | 23 W/m² | - |
| 1778022508 | 9.44° C | 93% | 1008.6 hPa | 0.51 mm | - | 35 W/m² | - |
| 1778020386 | 9.44° C | 92% | 1008.7 hPa | 1.27 mm | - | 66 W/m² | - |
| 1778020081 | 9.44° C | 92% | 1008.5 hPa | 1.27 mm | - | 73 W/m² | - |
| 1778019475 | 9.44° C | 92% | 1008.9 hPa | 1.78 mm | - | 58 W/m² | - |
| 1778017961 | 9.44° C | 91% | 1008.5 hPa | 2.29 mm | - | 43 W/m² | - |
| 1778017356 | 9.44° C | 92% | 1008.5 hPa | 2.29 mm | - | 44 W/m² | - |
| 1778014931 | 9.44° C | 89% | 1008.4 hPa | 0 mm | - | 47 W/m² | - |
| 1778014327 | 9.44° C | 89% | 1008.2 hPa | 0 mm | - | 66 W/m² | - |
| 1778013721 | 9.44° C | 88% | 1008.3 hPa | 0 mm | - | 64 W/m² | - |
| 1778013418 | 9.44° C | 87% | 1008.4 hPa | 0 mm | - | 67 W/m² | - |
| 1778012810 | 9.44° C | 91% | 1008.3 hPa | 0 mm | - | 61 W/m² | - |
| 1778010082 | 9.44° C | 88% | 1008.9 hPa | 0.51 mm | - | 97 W/m² | - |
| 1778009779 | 9.44° C | 88% | 1009.1 hPa | 0.51 mm | - | 72 W/m² | - |
| 1778009476 | 9.44° C | 87% | 1009.1 hPa | 0 mm | - | 64 W/m² | - |
| 1778009175 | 9.44° C | 88% | 1008.7 hPa | 0 mm | - | 83 W/m² | - |
| 1778006142 | 11.11° C | 86% | 1009 hPa | 1.78 mm | - | 87 W/m² | - |
| 1778004929 | 11.11° C | 85% | 1008.9 hPa | 1.27 mm | - | 145 W/m² | - |
| 1778004322 | 11.11° C | 85% | 1008.7 hPa | 0.51 mm | - | 127 W/m² | - |
| 1778004021 | 11.11° C | 83% | 1008.7 hPa | 1.27 mm | - | 170 W/m² | - |
| 1778002805 | 11.11° C | 81% | 1008.9 hPa | 1.78 mm | - | 137 W/m² | - |
| 1778001597 | 11.67° C | 77% | 1008.9 hPa | 0.51 mm | - | 133 W/m² | - |
| 1778001293 | 12.22° C | 77% | 1008.9 hPa | 0 mm | - | 148 W/m² | - |
* Rain latest hour (hover to see other rain measurements)
** Current wind speed in m/s (hover to see current wind gust speed)